User: anonymous   Login
Location: Gajan
(43.0218°N, 1.1244°E)
Time: 00:16:55
(UTC+00:00)
Language:

Cosmos 1842 Rocket - Orbit

View from above orbital plane
View from above orbital plane
View from above satellite
View from above satellite

Ground track
Ground track

The orbit data is extracted from the following two-line orbital elements,

1 17912U 87038B   21174.81683219  .00000065  00000-0  49938-5 0  9998
2 17912  82.5023 113.1977 0021792  78.1306 282.2351 14.83083680845244
Epoch (UTC): 23 June 2021 19:36:14
Eccentricity: 0.0021792
inclination: 82.5023°
perigee height: 604 km
apogee height: 635 km
right ascension of ascending node: 113.1977°
argument of perigee: 78.1306°
revolutions per day: 14.83083680
mean anomaly at epoch: 282.2351°
orbit number at epoch: 84524

The dashed part of the orbit path shows where the satellite is in the earth's shadow,  

DLR